Погода в Петрчанах

Хорватия     44°11′07″N   15°09′42″E
темп.,
°C
ветер,
м/с
пор.,
м/с
влажн.,
%
обл.,
%
осадки,
мм/ч
давл.,
гПа
погр.,
м
18 апреля, вс
вс1823:00+9св7858100 0.0 1013396
02:00+8св6864100 0.0 1013310
05:00+8св566913 0.0 1013252
08:00+9св566542 0.0 1014426
11:00+12ссв2249100 0.0 10151275
14:00+12зсз2251100 0.0 10151275
17:00+11св4460100 0.0 1015803
20:00+9св6765100 0.0 1016277
19 апреля, пн
пн1923:00+9св6768100 0.0 1016202
02:00+8св4569100 0.0 1015150
05:00+8св4469100 0.0 1015154
08:00+9св4566100 0.0 1015284
11:00+11ссв3355100 0.0 1014814
14:00+12сз545466 0.0 1014973
17:00+12ссз555643 0.0 1013899
20:00+10ссв6765100 0.0 1013304
20 апреля, вт
вт2023:00+9св576813 0.0 1014230
02:00+8св56699 0.0 1014184
05:00+8св346827 0.0 1014155
08:00+9св34635 0.0 1015296
11:00+12зсз22525 0.0 1015889
14:00+12зсз44586 0.0 1016677
17:00+12зсз43606 0.1 1015423
20:00+11сз227227 0.1 101685
21 апреля, ср
ср2123:00+10зюз11756 0.0 1017103
02:00+9вюв237867 0.0 101897
05:00+9вюв347632 0.0 1018124
08:00+10вюв457127 0.0 1019227
11:00+13ююв346389 0.0 1020747
14:00+14ююз336234 0.1 1020940
17:00+14юз22641 0.1 1019701
20:00+12ююв12751 0.1 102073
22 апреля, чт
чт2223:00+11в33782 0.0 102160
02:00+10в33760 0.0 102158
05:00+10в33730 0.0 102051
08:00+12вюв34671 0.0 1021133
11:00+15ю33581 0.0 1022824
14:00+16ююз44623 0.1 1021902
17:00+15ююз336346 0.1 1020755
20:00+13юв46790 0.1 1021157